Voltar ao catálogo

STARLINK-33694

AtivoComunicaçõesVLEO
NORAD 63407·PAYLOAD·🇺🇸 United States

Lançado Mar 31, 2025 de Cape Canaveral Space Force Station

Loading…

Próximas Passagens (próximas 24 horas)

TLE

AtualizadoSource: CelesTrak SupGP

Época: Sep 15, 2026, 02:25 UTC

1 63407C 25065J   26258.10118056  .00037498  00000+0  13582-2 0  2582
2 63407  43.0016 117.1813 0001422 275.7492 322.5670 15.27558099    10

Acompanhe STARLINK-33694 em tempo real com AllMySat

Download on the App Store